Weather History for Lakeland Region, FL

Change the Weather History Date:

Thursday, February 28, 2013

  Actual Average Record
Temperature  
Mean Temperature 60 °F -  
Max Temperature 73 °F 74 °F 84 °F (1997)
Min Temperature 46 °F 54 °F 33 °F (2002)
Degree Days  
Heating Degree Days 6    
Growing Degree Days 10 (Base 50)    
Moisture  
Dew Point 48 °F    
Average Humidity 75    
Maximum Humidity 100    
Minimum Humidity 33    
Precipitation  
Precipitation 0.00 in - - ()
Sea Level Pressure  
Sea Level Pressure 29.98 in    
Wind  
Wind Speed 3 mph (WNW)    
Max Wind Speed 16 mph    
Max Gust Speed 24 mph    
Visibility 11 miles    
Events      
Averages and records for this station are not official NWS values.
T = Trace of Precipitation, MM = Missing Value Source: NWS Daily Summary

Daily Weather History Graph

Daily Weather History Graph

Search for Another Location

Airport:

Trip Planner

Search our weather history database for the weather conditions in past years. The results will help you decide how hot, cold, wet, or windy it might be!

Date:

Astronomy

Feb. 28, 2013 Rise Set
Actual Time 6:53 AM EST 6:27 PM EST
Civil Twilight 6:29 AM EST 6:51 PM EST
Nautical Twilight 6:02 AM EST 7:18 PM EST
Astronomical Twilight 5:35 AM EST 7:46 PM EST
Moon 9:30 PM EST (2/28) 8:22 AM EST (2/28)
Length of Visible Light 12h 21m
Length of Day
11h 34m
Waning Gibbous, 91% of the Moon is Illuminated
Feb 28
Waning Gibbous
Mar 4
Last Quarter
Mar 11
New
Mar 19
First Quarter
Mar 27
Full

Hourly Weather History & Observations

Time (EST) Temp. Dew Point Humidity Pressure Visibility Wind Dir Wind Speed Gust Speed Precip Events Conditions
12:15 AM 53.6 °F 50.0 °F 88% 29.99 in 10.0 mi WNW 3.5 mph - N/A   Clear
12:35 AM 55.4 °F 50.0 °F 82% 29.99 in 10.0 mi Calm Calm - N/A   Clear
12:55 AM 53.6 °F 50.0 °F 88% 29.99 in 10.0 mi West 3.5 mph - N/A   Clear
1:15 AM 53.6 °F 50.0 °F 88% 29.99 in 10.0 mi Calm Calm - N/A   Clear
1:35 AM 53.6 °F 50.0 °F 88% 29.99 in 10.0 mi Calm Calm - N/A   Clear
1:55 AM 53.6 °F 50.0 °F 88% 29.98 in 10.0 mi Calm Calm - N/A   Clear
2:15 AM 51.8 °F 50.0 °F 94% 29.98 in 10.0 mi Calm Calm - N/A   Clear
2:35 AM 51.8 °F 48.2 °F 88% 29.98 in 10.0 mi Calm Calm - N/A   Clear
2:55 AM 51.8 °F 48.2 °F 88% 29.98 in 10.0 mi Calm Calm - N/A   Clear
3:15 AM 50.0 °F 48.2 °F 94% 29.96 in 10.0 mi Calm Calm - N/A   Clear
3:35 AM 50.0 °F 46.4 °F 87% 29.96 in 7.0 mi Calm Calm - N/A   Clear
3:55 AM 50.0 °F 50.0 °F 100% 29.96 in 5.0 mi Calm Calm - N/A   Clear
4:15 AM 50.0 °F 48.2 °F 94% 29.96 in 10.0 mi Calm Calm - N/A   Clear
4:35 AM 50.0 °F 46.4 °F 87% 29.96 in 10.0 mi Calm Calm - N/A   Clear
4:55 AM 46.4 °F 46.4 °F 100% 29.96 in 5.0 mi Calm Calm - N/A   Clear
5:15 AM 50.0 °F 46.4 °F 87% 29.97 in 10.0 mi NNW 3.5 mph - N/A   Clear
5:35 AM 51.8 °F 50.0 °F 94% 29.99 in 10.0 mi Calm Calm - N/A   Clear
5:50 AM 50.0 °F 46.4 °F 87% 29.98 in 10.0 mi Calm Calm - N/A   Scattered Clouds
6:50 AM 51.8 °F 48.2 °F 88% 29.99 in 10.0 mi Calm Calm - N/A   Scattered Clouds
8:50 AM 57.2 °F 51.8 °F 82% 30.02 in 8.0 mi Calm Calm - N/A   Scattered Clouds
9:50 AM 64.4 °F 51.8 °F 64% 30.01 in 8.0 mi NW 9.2 mph - N/A   Scattered Clouds
10:50 AM 68.0 °F 48.2 °F 49% 30.01 in 10.0 mi NW 10.4 mph - N/A   Scattered Clouds
11:50 AM 71.6 °F 48.2 °F 43% 30.00 in 15.0 mi West 11.5 mph - N/A   Scattered Clouds
12:51 PM 73.4 °F 48.2 °F 41% 29.98 in 15.0 mi West 13.8 mph 20.7 mph N/A   Scattered Clouds
1:50 PM 73.4 °F 46.4 °F 38% 29.94 in 15.0 mi NW 13.8 mph 21.9 mph N/A   Scattered Clouds
2:50 PM 73.4 °F 44.6 °F 36% 29.94 in 15.0 mi West 15.0 mph 24.2 mph N/A   Scattered Clouds
3:50 PM 73.4 °F 42.8 °F 33% 29.93 in 20.0 mi NW 16.1 mph 23.0 mph N/A   Partly Cloudy
4:50 PM 71.6 °F 42.8 °F 35% 29.93 in 20.0 mi WNW 15.0 mph 23.0 mph N/A   Scattered Clouds
6:53 PM 64.4 °F 46.4 °F 52% 29.94 in 15.0 mi WNW 5.8 mph - N/A   Mostly Cloudy
7:50 PM 62.6 °F 48.2 °F 59% 29.97 in 20.0 mi WNW 11.5 mph - N/A   Mostly Cloudy
8:53 PM 59.0 °F 50.0 °F 72% 29.97 in 15.0 mi NW 5.8 mph - N/A   Mostly Cloudy
9:55 PM 55.4 °F 48.2 °F 77% 29.98 in 10.0 mi Calm Calm - N/A   Clear
10:15 PM 53.6 °F 48.2 °F 82% 29.99 in 10.0 mi West 3.5 mph - N/A   Clear
10:35 PM 53.6 °F 46.4 °F 77% 29.99 in 10.0 mi West 4.6 mph - N/A   Clear
10:55 PM 53.6 °F 46.4 °F 77% 29.99 in 10.0 mi Calm Calm - N/A   Clear
11:15 PM 53.6 °F 46.4 °F 77% 29.99 in 10.0 mi WNW 4.6 mph - N/A   Clear
11:35 PM 53.6 °F 46.4 °F 77% 29.98 in 10.0 mi WNW 5.8 mph - N/A   Clear
11:55 PM 53.6 °F 46.4 °F 77% 29.97 in 10.0 mi WNW 3.5 mph - N/A   Clear